| time (UTC) | temp F | wind direction | speed MPH | gust MPH | rain 1hr in | rain 24hr in | rain mn in | humidity % | barometer mb |
| 20260905042954 | 64 | 211 | 0.0 | 0.0 | 0.00 | 0.00 | 0.00 | 93 | 1015.3 |
| 20260905041454 | 64 | 211 | 0.0 | 0.0 | 0.00 | 0.00 | 0.00 | 92 | 1015.4 |
| 20260905040006 | 65 | 211 | 0.0 | 1.0 | 0.00 | 0.00 | 0.00 | 92 | 1015.3 |
| 20260905034458 | 65 | 211 | 0.0 | 0.0 | 0.00 | 0.00 | 0.00 | 91 | 1015.3 |
| 20260905032958 | 65 | 211 | 0.0 | 2.0 | 0.00 | 0.00 | 0.00 | 91 | 1015.4 |
| 20260905031458 | 65 | 211 | 0.0 | 2.0 | 0.00 | 0.00 | 0.00 | 91 | 1015.2 |
| 20260905030001 | 65 | 211 | 0.0 | 1.0 | 0.00 | 0.00 | 0.00 | 92 | 1015.2 |
| 20260905024459 | 65 | 211 | 0.0 | 2.0 | 0.00 | 0.00 | 0.00 | 91 | 1015.2 |
| 20260905022958 | 65 | 211 | 0.0 | 1.0 | 0.00 | 0.00 | 0.00 | 91 | 1015.4 |
| 20260905021458 | 66 | 211 | 0.0 | 1.0 | 0.00 | 0.00 | 0.00 | 91 | 1015.3 |
| 20260905020001 | 66 | 211 | 0.0 | 0.0 | 0.00 | 0.00 | 0.00 | 90 | 1015.4 |
| 20260905014458 | 67 | 211 | 0.0 | 0.0 | 0.00 | 0.16 | 0.00 | 89 | 1015.4 |
| 20260905012959 | 67 | 211 | 0.0 | 0.0 | 0.00 | 0.16 | 0.00 | 87 | 1015.4 |
| 20260905011458 | 68 | 211 | 0.0 | 0.0 | 0.00 | 0.16 | 0.00 | 87 | 1015.4 |
| 20260905010002 | 68 | 211 | 0.0 | 0.0 | 0.00 | 0.16 | 0.00 | 88 | 1015.3 |
| 20260905002958 | 69 | 211 | 0.0 | 0.0 | 0.00 | 0.53 | 0.00 | 87 | 1015.3 |
| 20260905001458 | 69 | 211 | 0.0 | 0.0 | 0.00 | 0.53 | 0.00 | 85 | 1015.3 |
| 20260904234458 | 70 | 211 | 0.0 | 0.0 | 0.00 | 0.53 | 0.00 | 85 | 1015.2 |
| 20260904232958 | 71 | 211 | 0.0 | 0.0 | 0.00 | 0.53 | 0.00 | 86 | 1015.0 |
| 20260904230001 | 72 | 149 | 0.0 | 1.0 | 0.00 | 0.53 | 0.00 | 83 | 1014.6 |
| 20260904222957 | 73 | 260 | 0.0 | 0.0 | 0.00 | 0.53 | 0.00 | 77 | 1014.4 |
| 20260904220001 | 74 | 260 | 0.0 | 1.0 | 0.00 | 0.53 | 0.00 | 76 | 1014.2 |
| 20260904212957 | 75 | 260 | 1.0 | 2.0 | 0.00 | 0.53 | 0.00 | 75 | 1014.3 |
| 20260904211457 | 75 | 257 | 2.0 | 5.0 | 0.00 | 0.53 | 0.00 | 73 | 1014.6 |
| 20260904210000 | 76 | 333 | 1.0 | 2.0 | 0.00 | 0.53 | 0.00 | 73 | 1014.5 |
| 20260904204457 | 77 | 329 | 2.0 | 4.0 | 0.00 | 0.55 | 0.00 | 71 | 1014.7 |
| 20260904202957 | 76 | 34 | 1.0 | 2.0 | 0.00 | 0.55 | 0.00 | 75 | 1014.7 |
| 20260904201457 | 76 | 34 | 1.0 | 4.0 | 0.00 | 0.55 | 0.00 | 73 | 1014.6 |
| 20260904200000 | 76 | 302 | 2.0 | 4.0 | 0.00 | 0.55 | 0.00 | 75 | 1014.8 |
| 20260904194457 | 77 | 297 | 2.0 | 6.0 | 0.00 | 0.55 | 0.00 | 75 | 1015.0 |
| 20260904192957 | 77 | 245 | 2.0 | 9.0 | 0.00 | 0.55 | 0.00 | 72 | 1015.3 |
| 20260904191457 | 77 | 331 | 2.0 | 5.0 | 0.00 | 0.55 | 0.00 | 74 | 1015.3 |
| 20260904185959 | 76 | 286 | 2.0 | 6.0 | 0.00 | 0.55 | 0.00 | 76 | 1015.3 |
| 20260904184457 | 77 | 253 | 2.0 | 6.0 | 0.00 | 0.55 | 0.00 | 73 | 1015.5 |
| 20260904182957 | 77 | 303 | 2.0 | 5.0 | 0.00 | 0.55 | 0.00 | 72 | 1015.5 |
| 20260904181457 | 77 | 259 | 2.0 | 5.0 | 0.00 | 0.55 | 0.00 | 71 | 1015.7 |
| 20260904180000 | 76 | 278 | 2.0 | 6.0 | 0.00 | 0.55 | 0.00 | 73 | 1015.8 |
| 20260904174457 | 76 | 314 | 1.0 | 7.0 | 0.00 | 0.55 | 0.00 | 72 | 1015.9 |
| 20260904172957 | 76 | 288 | 1.0 | 4.0 | 0.00 | 0.55 | 0.00 | 74 | 1016.1 |
| 20260904171457 | 76 | 230 | 2.0 | 4.0 | 0.00 | 0.55 | 0.00 | 72 | 1016.1 |
| 20260904164456 | 76 | 293 | 1.0 | 3.0 | 0.00 | 0.55 | 0.00 | 75 | 1016.3 |
| 20260904162956 | 75 | 248 | 2.0 | 5.0 | 0.00 | 0.55 | 0.00 | 74 | 1016.4 |
| 20260904160000 | 76 | 348 | 1.0 | 4.0 | 0.00 | 0.55 | 0.00 | 75 | 1016.4 |
| 20260904154457 | 76 | 148 | 2.0 | 4.0 | 0.00 | 0.55 | 0.00 | 74 | 1016.3 |
| 20260904151457 | 75 | 101 | 1.0 | 4.0 | 0.00 | 0.55 | 0.00 | 77 | 1016.5 |
| 20260904150000 | 73 | 36 | 2.0 | 3.0 | 0.00 | 0.55 | 0.00 | 80 | 1016.0 |
| 20260904144456 | 73 | 169 | 1.0 | 4.0 | 0.00 | 0.55 | 0.00 | 78 | 1016.2 |
| 20260904141456 | 71 | 261 | 1.0 | 3.0 | 0.00 | 0.55 | 0.00 | 87 | 1016.5 |
| 20260904135959 | 71 | 305 | 1.0 | 5.0 | 0.00 | 0.55 | 0.00 | 88 | 1016.5 |
| 20260904134457 | 70 | 251 | 1.0 | 3.0 | 0.00 | 0.55 | 0.00 | 89 | 1016.6 |
| 20260904132957 | 69 | 321 | 1.0 | 5.0 | 0.00 | 0.55 | 0.00 | 89 | 1016.5 |
| 20260904131457 | 68 | 273 | 1.0 | 6.0 | 0.00 | 0.55 | 0.00 | 91 | 1016.7 |
| 20260904130000 | 67 | 304 | 2.0 | 4.0 | 0.00 | 0.55 | 0.00 | 93 | 1016.6 |
| 20260904124458 | 66 | 246 | 2.0 | 4.0 | 0.00 | 0.56 | 0.00 | 95 | 1016.6 |
| 20260904122957 | 65 | 279 | 1.0 | 4.0 | 0.00 | 0.56 | 0.00 | 97 | 1016.5 |
| 20260904120001 | 63 | 257 | 0.0 | 1.0 | 0.00 | 0.56 | 0.00 | 98 | 1016.4 |
| 20260904114457 | 62 | 257 | 0.0 | 0.0 | 0.00 | 0.56 | 0.00 | 98 | 1016.3 |
| 20260904112957 | 62 | 257 | 0.0 | 0.0 | 0.00 | 0.56 | 0.00 | 97 | 1016.3 |
| 20260904111456 | 62 | 257 | 0.0 | 0.0 | 0.00 | 0.56 | 0.00 | 97 | 1016.2 |
| 20260904105959 | 62 | 257 | 0.0 | 0.0 | 0.00 | 0.56 | 0.00 | 97 | 1016.1 |
| 20260904104457 | 62 | 257 | 0.0 | 0.0 | 0.00 | 0.56 | 0.00 | 97 | 1016.0 |
| 20260904095958 | 63 | 257 | 0.0 | 1.0 | 0.00 | 0.56 | 0.00 | 96 | 1015.7 |
| 20260904094455 | 64 | 307 | 0.0 | 2.0 | 0.00 | 0.56 | 0.00 | 96 | 1015.6 |
| 20260904091455 | 64 | 307 | 0.0 | 0.0 | 0.00 | 0.56 | 0.00 | 96 | 1015.6 |
| 20260904085959 | 64 | 307 | 0.0 | 1.0 | 0.00 | 0.56 | 0.00 | 96 | 1015.6 |
| 20260904084455 | 64 | 307 | 0.0 | 1.0 | 0.00 | 0.56 | 0.00 | 96 | 1015.4 |
| 20260904082956 | 64 | 307 | 0.0 | 1.0 | 0.00 | 0.56 | 0.00 | 96 | 1015.4 |
| 20260904081456 | 64 | 307 | 0.0 | 0.0 | 0.00 | 0.56 | 0.00 | 95 | 1015.2 |
| 20260904075959 | 64 | 307 | 0.0 | 2.0 | 0.00 | 0.56 | 0.00 | 96 | 1015.0 |
| 20260904074458 | 64 | 274 | 0.0 | 2.0 | 0.00 | 0.56 | 0.00 | 96 | 1015.0 |
| 20260904072955 | 64 | 282 | 0.0 | 1.0 | 0.00 | 0.56 | 0.00 | 96 | 1015.0 |
| 20260904071455 | 65 | 282 | 0.0 | 1.0 | 0.00 | 0.56 | 0.00 | 96 | 1014.9 |
| 20260904070000 | 65 | 282 | 0.0 | 3.0 | 0.00 | 0.56 | 0.00 | 96 | 1014.8 |
| 20260904062955 | 66 | 309 | 0.0 | 3.0 | 0.00 | 0.56 | 0.00 | 98 | 1014.8 |
| 20260904061455 | 66 | 309 | 0.0 | 1.0 | 0.00 | 0.56 | 0.00 | 97 | 1014.8 |
| 20260904060000 | 67 | 309 | 0.0 | 1.0 | 0.00 | 0.56 | 0.00 | 98 | 1014.9 |
| 20260904054455 | 67 | 309 | 1.0 | 1.0 | 0.00 | 0.56 | 0.00 | 97 | 1015.1 |
| 20260904052955 | 67 | 309 | 1.0 | 2.0 | 0.00 | 0.56 | 0.00 | 97 | 1015.2 |
| 20260904051455 | 68 | 309 | 0.0 | 1.0 | 0.00 | 0.56 | 0.00 | 98 | 1015.3 |
| 20260904044455 | 69 | 309 | 1.0 | 2.0 | 0.00 | 0.56 | 0.00 | 98 | 1015.4 |